Showing default

NETSAT-3, 46505

Orbit data source: Space-Track

NETSAT-3, 46505 is a payload satellite owned by ZfT (DE) in SSO that was launched on Mon, 28 Sep 2020 UTC via a SOYUZ-2-1B launch vehicle from the Plesetsk Missile And Space Complex (PKMTR). Payload-class satellites include a variety of spacecraft equipped with specific instruments for various scientific and technological missions. These include communications satellites like Starlink; space stations such as the ISS; scientific satellites like the Hubble; Earth observation satellites from companies like Planet Labs, Umbra, and HawkEye 360; GPS; miniature CubeSats for education and research; and military/defense satellites.

Loading next visibility...
Identifier
46505, 2020-068V
Orbit
SSO
Country
Flag of DEDE / GER
Related business
Manufacturer
ZfT
Mission
Operational Commercial Technology
Bus & Motor
CUBESAT 3U, Unknown motor
Mass
4 kg wet, 4 kg dry
Launch date (UTC)
2020-09-28 (6 years ago)
Launch vehicle
SOYUZ-2-1B
Launch site
Plesetsk Missile And Space Complex (PKMTR)
Object type
Payload
Rocket body
Debris
Shape & HBR
Box, 1.0 m
Radar Cross Section
0.035 m², Medium (>0.1 m² and < 1m²)

Expand to show TLE details & history
Last TLE update: 15 hours ago

TLE from 15 hours ago
0 NETSAT-3
1 46505U 20068V   26253.99900343  .00015097  00000-0  31751-3 0  9993
2 46505  97.8662 267.4378 0005884  48.9488 311.2267 15.45404283328925
Epoch: 2026-09-10T23:58Z
TLE epoch observation values (Epoch: 2026-09-10T23:58:33.896Z)
Latitude
-0.00003°
Longitude
-82.23209°
Altitude
430.662 km
Speed
7.655 km/s
True Right ascension
17h 49m 45s
True Declination
0° 00' 00"
Sunlit
Object was in daylight at epoch
Visualization orbit readout
Latitude
Unknown
Longitude
Unknown
Altitude
Unknown
Speed
Unknown
Apparent Right ascension
Unknown
Apparent Declination
Unknown
Sunlit
N/A
Visualization observer readout
Local Sidereal Time
07:45:04
Azimuth
Unknown
Elevation
Unknown
Doppler factor
Unknown
Orbital elements
Apogee altitude
431.147 km
Perigee altitude
423.139 km
Semi-major axis
6,805.28 km
Eccentricity
0.00059
Inclination
97.8662°
RAAN
267.4378°
Arg. of periapsis
48.9488°
True anomaly
311.17596°
Mean anomaly
311.2267°
Eccentric anomaly
311.20133°
Mean motion
3.86611 °/min
Orbital period
93.12 mins
BSTAR
0.00031751
Loading maneuver chart data...
Computing Atmospheric mass density...
Loading historical data...
Loading historical data...
Loading historical data...
Loading historical data...
Loading historical data...
Loading historical data...
Loading historical data...

Documentation

Showing up to 5 results
|